Wind_Speed
24 24 24 24 24 25 25 25 24 24 24 24 25 26 26 27 28 30 32 34 35 38 39 39 39 39 38 36 35 35 35 33 33 33 32 31 31 29 27 26 25 25 23
22 23 23 23 23 24 24 23 23 23 22 23 23 23 24 24 24 26 28 30 32 35 37 38 39 40 39 39 38 36 35 34 33 33 33 32 31 30 29 29 28 27 25
22 22 23 23 23 24 24 23 22 22 21 21 21 21 21 21 21 22 23 25 28 31 33 35 37 39 40 40 40 39 37 35 34 34 33 32 31 32 32 31 31 29 28
22 23 23 23 23 24 23 22 21 21 20 19 19 19 18 18 18 19 20 22 24 27 30 31 34 37 39 39 39 39 38 37 36 35 34 34 33 33 33 33 32 31 30
23 23 23 23 23 23 23 22 20 19 19 18 17 17 16 16 16 16 18 19 21 23 26 28 31 33 36 37 39 39 38 37 36 36 36 36 36 35 34 33 33 33 32
22 23 23 23 23 23 23 23 21 20 19 18 17 16 15 14 14 14 15 15 17 19 22 26 28 30 32 35 37 37 38 39 38 37 37 38 36 35 35 35 34 34 33
22 22 23 23 23 23 24 23 22 21 20 18 17 16 14 13 12 12 12 12 13 16 19 22 25 28 30 32 34 35 37 38 38 38 39 39 38 36 36 36 35 34 34
21 23 23 24 24 24 24 24 23 22 21 19 18 16 14 13 12 11 10 10 10 11 14 17 19 23 26 29 32 33 35 35 36 37 38 38 38 37 36 36 35 35 36
21 22 23 24 24 24 24 24 24 24 22 21 20 18 16 14 13 11 10 10 10 10 11 13 15 18 22 25 27 29 32 34 34 35 36 36 37 37 37 36 36 36 36
22 22 23 23 24 24 24 24 24 24 23 22 21 19 18 16 14 13 11 10 8 8 9 9 12 15 18 22 24 26 28 30 31 32 34 36 35 36 37 36 36 36 36
22 23 23 23 24 24 24 25 25 25 24 23 22 21 20 18 16 15 12 10 8 7 7 8 9 11 14 16 19 21 23 25 27 29 31 34 34 34 35 35 35 35 35
22 23 23 23 24 24 24 25 25 25 24 24 23 22 21 20 19 17 14 12 10 9 8 7 8 9 10 12 14 17 20 22 24 26 27 30 31 30 30 32 33 33 33
21 22 23 23 23 24 24 25 25 25 25 24 24 22 21 21 21 19 17 14 13 11 10 8 7 7 8 9 11 13 16 18 20 22 24 27 28 28 28 28 29 31 31
20 21 22 23 23 24 24 24 25 25 25 25 25 24 23 22 22 21 19 17 15 14 12 10 8 6 6 6 7 9 11 13 16 18 20 23 24 24 25 26 26 27 29
20 20 21 22 23 24 24 24 24 25 25 25 25 25 25 24 23 23 22 20 17 15 14 12 10 8 6 5 5 7 9 11 13 15 17 19 20 20 22 23 25 25 26
19 20 21 21 22 23 24 24 25 25 25 25 25 25 25 25 25 24 23 22 20 18 16 15 13 10 7 5 4 4 6 7 10 12 14 16 17 18 19 21 22 22 23
18 19 20 21 21 22 23 24 24 24 24 25 25 25 25 25 25 25 24 23 22 20 18 17 15 12 9 6 5 3 2 4 6 8 11 13 15 16 17 18 19 20 21
17 18 18 19 20 21 22 23 23 24 24 24 25 25 25 25 25 25 25 24 24 23 22 21 20 16 13 10 7 6 4 1 3 5 8 10 13 14 14 15 16 17 18
16 16 17 18 19 19 20 21 22 23 23 24 24 24 24 24 25 24 24 24 23 23 22 21 20 18 15 12 9 7 6 4 2 2 4 6 8 10 11 13 15 16 16
15 15 16 17 17 18 19 20 21 21 22 22 23 24 23 23 24 24 24 24 23 22 22 21 20 18 16 14 12 10 8 6 4 2 1 2 4 6 7 9 10 12 13
15 15 15 16 17 17 18 18 19 20 20 21 21 22 23 23 23 23 23 23 23 22 22 21 20 18 16 15 14 12 10 9 7 5 3 1 1 2 4 6 7 7 9
15 15 16 16 16 17 17 17 18 18 19 19 20 20 21 22 22 22 22 22 22 22 21 21 20 19 18 16 15 13 12 11 9 7 5 3 3 2 2 3 4 5 7
15 15 16 16 16 17 17 17 17 17 18 18 18 19 19 20 21 21 21 21 21 21 21 20 19 19 18 17 16 15 13 11 11 9 7 6 5 4 4 3 3 3 4
16 16 16 17 17 17 17 17 17 17 17 18 18 18 18 18 19 19 19 19 20 19 19 19 18 17 17 17 16 15 15 13 12 11 10 9 8 7 7 6 5 5 5
18 18 18 18 18 18 18 18 18 18 18 18 18 18 17 17 17 17 18 18 18 17 17 17 17 16 15 15 15 14 14 13 12 11 10 10 9 8 7 6 5 5 5
21 21 21 20 20 20 19 19 19 19 19 19 18 18 17 17 17 16 16 16 16 16 15 15 15 15 14 13 13 13 13 12 11 10 9 9 8 8 7 6 6 5 4
Wind_Direction
323 323 322 321 319 317 314 311 307 303 299 295 291 288 282 277 271 264 258 254 251 247 245 243 241 240 238 239 239 239 240 240 240 240 241 241 240 238 238 239 239 239 239
332 331 331 329 327 326 323 319 314 310 306 302 297 293 289 283 276 269 261 255 251 247 245 243 240 238 237 238 238 238 238 238 239 240 240 239 237 236 236 237 239 239 239
340 339 338 336 335 333 330 326 322 318 313 309 305 299 293 287 281 273 264 259 254 248 245 243 240 238 237 237 236 236 237 237 237 237 236 236 233 235 235 235 236 237 239
346 346 345 342 341 341 339 335 330 326 323 319 315 309 300 293 287 280 271 263 256 250 246 243 240 238 237 237 237 236 237 236 236 236 234 231 231 233 234 234 236 236 239
351 351 351 350 349 348 347 345 341 337 333 329 325 320 313 303 294 285 277 268 260 253 247 244 240 238 237 237 237 237 236 236 236 236 235 231 232 232 233 233 235 236 237
357 358 359 359 358 357 357 356 353 348 344 340 335 329 323 314 304 293 284 275 265 255 249 245 241 239 238 238 238 238 238 237 237 238 236 233 232 232 232 233 234 236 237
4 5 6 7 6 4 3 3 1 358 355 351 347 343 338 329 319 308 293 284 275 264 255 249 244 240 238 238 239 240 239 239 239 239 237 233 233 233 234 234 236 237 237
10 9 10 10 9 8 8 8 8 7 4 3 360 355 350 344 336 325 311 298 289 278 264 253 246 244 241 240 241 241 240 240 239 238 237 235 233 232 234 234 235 236 237
10 10 11 11 11 11 11 11 11 11 11 10 8 7 3 357 350 341 331 317 302 290 276 261 252 247 245 243 243 242 241 240 241 239 237 236 235 234 235 235 235 235 236
13 13 12 13 13 15 15 15 15 14 14 14 13 11 9 6 2 358 351 341 324 304 289 273 261 252 248 246 245 244 243 241 240 240 238 236 235 235 236 238 237 236 236
15 15 15 15 16 17 17 18 18 17 17 17 16 15 15 14 10 6 2 356 345 331 306 283 268 260 255 251 247 245 243 243 240 238 237 234 234 235 236 237 237 237 237
15 16 16 17 18 19 19 19 19 18 18 18 18 18 19 19 18 14 10 4 355 343 330 302 287 276 268 258 249 246 244 243 241 239 237 234 235 234 235 236 237 236 237
16 17 18 19 19 19 20 21 21 21 20 20 19 19 20 19 18 16 14 11 7 0 352 337 310 289 277 266 253 247 244 243 241 239 237 234 235 237 237 237 237 237 238
18 19 20 20 21 21 22 22 22 22 22 23 23 22 22 20 18 18 17 15 12 10 8 1 344 321 302 284 265 251 245 241 240 239 236 234 236 237 236 238 238 238 238
19 19 20 21 22 22 23 23 23 23 23 24 24 24 24 24 23 22 22 21 20 18 14 11 5 353 333 308 278 261 251 248 245 241 238 236 236 236 234 236 236 237 238
17 18 19 20 21 22 23 23 24 23 23 23 24 25 25 25 25 25 24 25 25 24 22 19 18 10 1 348 318 283 261 251 245 238 236 236 236 236 236 237 238 239 239
14 15 16 17 19 21 22 23 23 24 23 23 24 25 25 26 26 27 27 27 27 28 28 26 23 21 20 16 9 349 292 259 246 241 238 236 235 236 240 241 241 239 237
10 11 12 13 15 18 19 21 22 22 23 23 24 25 25 26 27 27 28 28 28 29 30 30 30 33 35 35 30 25 16 329 255 247 240 236 235 238 240 239 237 237 236
4 6 7 9 10 13 15 17 18 19 21 22 22 23 24 25 26 27 27 27 26 27 29 30 32 35 37 38 34 30 23 23 359 276 245 232 229 232 233 235 237 237 236
356 359 1 2 4 6 9 11 13 14 16 17 19 21 22 23 24 25 26 26 26 26 26 27 30 33 35 34 35 33 30 30 29 20 305 240 231 228 232 228 228 229 230
346 349 351 353 356 359 1 3 6 8 10 12 15 18 19 20 21 22 24 24 25 26 26 26 28 31 33 33 35 37 37 38 40 46 58 77 178 208 211 213 214 216 217
337 340 342 344 347 350 352 355 358 1 4 6 9 11 14 16 17 18 20 22 23 25 26 27 29 31 33 36 38 40 41 42 45 48 53 55 65 111 157 185 196 202 203
328 331 333 335 338 341 344 347 350 352 356 359 1 4 6 9 11 13 16 19 20 22 25 27 28 30 32 34 37 39 41 43 44 47 53 57 66 75 92 118 134 158 174
318 321 324 326 329 332 335 337 340 342 345 348 352 354 357 -0 3 5 9 13 16 18 21 24 27 29 31 34 37 39 42 45 48 51 55 61 68 76 87 100 111 122 131
309 312 314 316 319 322 325 327 329 332 334 336 340 343 346 349 353 357 359 3 8 12 16 20 23 26 29 32 34 37 40 44 48 53 58 66 73 79 88 96 107 124 124
302 304 305 307 309 311 314 316 319 321 324 326 329 332 335 339 342 345 349 353 357 2 6 11 15 19 23 27 31 34 37 42 47 52 58 64 68 68 74 83 94 107 117
Height
5846 5841 5837 5832 5828 5823 5819 5815 5811 5808 5805 5803 5800 5798 5797 5796 5796 5796 5797 5799 5801 5803 5807 5810 5813 5817 5821 5824 5828 5832 5835 5838 5841 5845 5849 5852 5855 5858 5861 5864 5866 5869 5872
5843 5838 5833 5828 5824 5819 5814 5810 5806 5802 5799 5796 5794 5792 5790 5788 5787 5787 5788 5789 5791 5793 5797 5800 5803 5807 5811 5815 5819 5823 5827 5830 5833 5837 5840 5844 5848 5851 5855 5858 5861 5863 5866
5841 5836 5831 5825 5821 5816 5811 5806 5801 5798 5794 5791 5788 5786 5784 5782 5781 5780 5780 5781 5782 5784 5787 5790 5794 5798 5802 5806 5810 5814 5818 5822 5825 5829 5833 5837 5841 5844 5848 5851 5854 5857 5860
5839 5834 5829 5823 5818 5813 5808 5803 5798 5794 5790 5787 5783 5781 5778 5776 5775 5774 5774 5774 5775 5777 5779 5782 5785 5789 5793 5797 5801 5805 5809 5813 5817 5821 5825 5829 5833 5836 5840 5844 5847 5850 5853
5838 5832 5827 5822 5816 5811 5806 5800 5795 5791 5787 5783 5780 5777 5774 5772 5770 5769 5768 5768 5768 5770 5772 5774 5777 5780 5784 5788 5792 5796 5801 5805 5808 5812 5816 5820 5825 5829 5833 5836 5840 5843 5846
5837 5831 5826 5821 5816 5810 5805 5799 5794 5789 5785 5781 5777 5774 5771 5769 5767 5765 5764 5763 5763 5764 5765 5767 5769 5773 5776 5780 5784 5788 5792 5796 5800 5804 5808 5812 5816 5820 5825 5828 5831 5835 5838
5837 5832 5826 5821 5816 5810 5805 5799 5794 5789 5784 5780 5776 5772 5769 5767 5764 5762 5761 5760 5759 5759 5759 5761 5763 5766 5769 5772 5776 5780 5784 5787 5791 5795 5800 5804 5808 5812 5816 5820 5823 5827 5831
5838 5832 5827 5822 5817 5811 5805 5800 5794 5789 5784 5780 5775 5772 5768 5765 5763 5760 5758 5757 5756 5755 5755 5756 5757 5759 5762 5765 5769 5772 5775 5779 5783 5787 5791 5795 5799 5804 5807 5812 5815 5819 5823
5838 5833 5828 5823 5818 5812 5807 5801 5796 5790 5785 5780 5776 5772 5768 5765 5762 5759 5756 5754 5753 5752 5752 5752 5753 5755 5757 5759 5761 5764 5768 5771 5775 5779 5782 5786 5791 5795 5799 5803 5807 5811 5815
5839 5834 5830 5824 5819 5814 5808 5803 5798 5792 5787 5782 5777 5773 5768 5765 5761 5758 5755 5753 5751 5750 5750 5749 5750 5750 5752 5754 5756 5758 5761 5764 5768 5771 5775 5779 5782 5787 5791 5795 5798 5802 5806
5841 5836 5831 5826 5821 5816 5810 5805 5800 5794 5789 5784 5779 5774 5770 5765 5762 5758 5756 5753 5751 5749 5748 5747 5747 5747 5748 5748 5750 5752 5755 5758 5761 5764 5768 5771 5775 5779 5783 5787 5790 5794 5798
5842 5837 5833 5828 5823 5818 5812 5807 5802 5797 5791 5786 5781 5776 5772 5767 5763 5759 5756 5753 5751 5748 5747 5745 5744 5744 5744 5745 5746 5747 5750 5752 5755 5758 5761 5765 5768 5772 5776 5779 5783 5786 5790
5844 5839 5834 5829 5825 5820 5815 5810 5805 5799 5794 5789 5784 5779 5774 5770 5765 5761 5757 5754 5751 5748 5746 5743 5742 5742 5742 5742 5742 5743 5745 5747 5749 5752 5755 5758 5762 5765 5768 5772 5775 5778 5782
5845 5841 5836 5832 5827 5822 5817 5812 5807 5802 5797 5792 5787 5782 5777 5772 5768 5763 5759 5755 5751 5748 5746 5743 5741 5740 5740 5740 5740 5740 5741 5743 5745 5747 5750 5753 5756 5759 5762 5765 5768 5771 5774
5847 5843 5838 5834 5829 5825 5820 5815 5810 5805 5800 5795 5790 5785 5780 5775 5770 5766 5761 5756 5753 5749 5746 5743 5741 5739 5738 5738 5738 5738 5739 5740 5742 5744 5746 5748 5751 5753 5756 5759 5762 5764 5767
5848 5844 5840 5836 5831 5827 5822 5818 5813 5808 5803 5798 5793 5788 5783 5779 5774 5768 5764 5759 5755 5751 5748 5744 5742 5739 5738 5736 5736 5736 5737 5737 5738 5740 5742 5744 5746 5749 5751 5753 5756 5758 5761
5849 5846 5842 5838 5834 5829 5825 5820 5816 5811 5806 5802 5797 5792 5787 5782 5777 5772 5767 5763 5758 5754 5750 5746 5743 5740 5738 5737 5736 5735 5735 5735 5736 5737 5738 5740 5742 5744 5746 5748 5751 5753 5755
5850 5847 5843 5839 5835 5831 5827 5823 5818 5814 5809 5805 5800 5795 5790 5786 5781 5776 5771 5766 5762 5758 5753 5749 5745 5741 5739 5738 5736 5736 5735 5734 5735 5735 5736 5737 5739 5741 5743 5744 5746 5748 5751
5851 5848 5844 5841 5837 5833 5829 5825 5821 5817 5812 5808 5803 5799 5794 5789 5784 5780 5775 5770 5766 5761 5757 5753 5749 5745 5743 5740 5739 5737 5736 5735 5735 5735 5735 5736 5737 5738 5740 5741 5743 5745 5747
5851 5848 5845 5841 5838 5834 5831 5827 5823 5819 5815 5810 5806 5801 5797 5792 5788 5783 5779 5774 5770 5765 5761 5757 5753 5749 5746 5744 5741 5740 5738 5736 5735 5735 5735 5735 5736 5737 5738 5739 5740 5742 5744
5851 5848 5845 5842 5838 5835 5832 5828 5824 5821 5817 5813 5808 5804 5800 5795 5791 5786 5782 5778 5773 5769 5764 5760 5756 5753 5750 5747 5744 5742 5740 5738 5737 5736 5736 5736 5736 5736 5737 5738 5739 5740 5742
5849 5847 5844 5841 5838 5835 5832 5828 5825 5822 5818 5814 5810 5806 5802 5798 5794 5789 5785 5781 5776 5772 5768 5764 5760 5757 5753 5750 5747 5745 5743 5741 5739 5738 5737 5737 5737 5737 5737 5738 5738 5740 5741
5848 5845 5843 5840 5837 5835 5831 5828 5825 5822 5819 5815 5811 5808 5804 5800 5796 5792 5788 5784 5780 5776 5772 5768 5764 5761 5757 5754 5751 5748 5746 5744 5742 5740 5740 5739 5738 5738 5738 5738 5739 5740 5741
5845 5843 5841 5838 5836 5833 5830 5827 5824 5821 5818 5815 5812 5808 5805 5801 5798 5794 5790 5786 5783 5779 5775 5771 5768 5764 5761 5758 5755 5752 5750 5747 5745 5743 5742 5741 5741 5740 5740 5741 5741 5742 5743
5842 5840 5838 5836 5833 5831 5828 5825 5823 5820 5817 5814 5811 5808 5805 5802 5798 5795 5792 5788 5785 5781 5778 5774 5771 5767 5765 5762 5759 5756 5753 5751 5749 5747 5745 5745 5744 5744 5743 5743 5743 5744 5744
5838 5836 5834 5832 5830 5827 5825 5823 5820 5818 5815 5812 5810 5807 5804 5801 5798 5795 5792 5789 5786 5783 5779 5776 5773 5770 5767 5764 5762 5759 5757 5754 5752 5750 5749 5748 5747 5747 5746 5746 5746 5746 5746